User: anonymous   Login
Location: Kępno
(51.2838°N, 17.9864°E)
Time: 16:46:52
(UTC+02:00)
Language:

ISS - Orbit

View from above orbital plane
View from above orbital plane
View from above satellite
View from above satellite

Ground track
Ground track

The orbit data is extracted from the following two-line orbital elements,

1 25544U 98067A   18289.55697908  .00016717  00000-0  10270-3 0  9015
2 25544  51.6384 133.9006 0004165 296.8744  63.1983 15.53824177 17389
Epoch (UTC): 16 October 2018 13:22:02
Eccentricity: 0.0004165
inclination: 51.6384°
perigee height: 403 km
apogee height: 408 km
right ascension of ascending node: 133.9006°
argument of perigee: 296.8744°
revolutions per day: 15.53824177
mean anomaly at epoch: 63.1983°
orbit number at epoch: 1738

The dashed part of the orbit path shows where the satellite is in the earth's shadow,  

DLR